Cut Bank, MT

7:16 AM MST on December 11, 2019 (GMT -0700)
Cut Bank Municipal

Weather History for KCTB - November, 2019

Change the Weather History Date:

Wednesday, November 20, 2019

  Actual Average Record
Temperature  
Mean Temperature 16 °F 28 °F  
Max Temperature 27 °F 38 °F 62 °F (1987)
Min Temperature 5 °F 19 °F -21 °F (1921)
Degree Days  
Heating Degree Days 49 37  
Month to date heating degree days 672 654  
Since 1 July heating degree days 2171 1878  
Cooling Degree Days 0 0  
Month to date cooling degree days 0 0  
Year to date cooling degree days 106 162  
Moisture  
Dew Point 18 °F    
Average Humidity 87    
Maximum Humidity 96    
Minimum Humidity 76    
Precipitation  
Precipitation 0.01 in 0.01 in 0.30 in (1970)
Month to date precipitation 0.34 0.25  
Year to date precipitation 12.07 10.57  
Snow  
Snow - - - ()
Snow Depth 3.00 in    
Sea Level Pressure  
Sea Level Pressure 30.17 in    
Wind  
Wind Speed 9 mph ()    
Max Wind Speed 20 mph    
Max Gust Speed 23 mph    
Visibility 3.9 miles    
Events Fog , Snow    
T = Trace of Precipitation, MM = Missing Value Source: Averaged Metar Reports

Daily Weather History Graph

Daily Weather History Graph

Search for Another Location

Airport or City:

Astronomy

Nov. 20, 2019 Rise Set
Actual Time 7:45 AM MST 4:44 PM MST
Civil Twilight 7:10 AM MST 5:19 PM MST
Nautical Twilight 6:31 AM MST 5:58 PM MST
Astronomical Twilight 5:54 AM MST 6:35 PM MST
Moon No Moon Rise 2:21 PM MST (11/20)
Length of Visible Light 10h 09m
Length of Day
8h 59m
Last Quarter, 40% of the Moon is Illuminated
Nov 20
Last Quarter
Nov 26
New
Dec 3
First Quarter
Dec 11
Full
Dec 18
Last Quarter

Hourly Weather History & Observations

Time (MST) Temp. Windchill Dew Point Humidity Pressure Visibility Wind Dir Wind Speed Gust Speed Precip Events Conditions
12:20 AM 27.0 °F 15.2 °F 25.0 °F 92% 30.01 in 2.0 mi NNE 15.0 mph - 0.00 in Snow Light Snow
12:40 AM 27.0 °F 14.7 °F 24.1 °F 89% 30.02 in 1.8 mi North 16.1 mph - 0.00 in Snow Light Snow
12:56 AM 27.0 °F 14.7 °F 24.1 °F 89% 30.13 in 1.2 mi NNE 16.1 mph - 0.00 in Snow Light Snow
1:17 AM 27.0 °F 14.7 °F 24.1 °F 89% 30.04 in 2.5 mi North 16.1 mph - 0.00 in Snow Light Snow
1:32 AM 27.0 °F 15.6 °F 24.1 °F 89% 30.04 in 3.0 mi North 13.8 mph - 0.00 in Snow Light Snow
1:39 AM 27.0 °F 15.2 °F 24.1 °F 89% 30.05 in 3.0 mi NNE 15.0 mph - 0.00 in Snow Light Snow
1:56 AM 27.0 °F 16.1 °F 24.1 °F 89% 30.15 in 5.0 mi North 12.7 mph - 0.00 in Snow Light Snow
2:15 AM 27.0 °F 16.1 °F 24.1 °F 89% 30.06 in 2.5 mi North 12.7 mph - 0.00 in Snow Light Snow
2:32 AM 27.0 °F 16.1 °F 24.1 °F 89% 30.07 in 2.5 mi NNE 12.7 mph - 0.00 in Snow Light Snow
2:42 AM 27.0 °F 15.6 °F 24.1 °F 89% 30.07 in 1.5 mi NNE 13.8 mph - 0.00 in Snow Light Snow
2:56 AM 26.1 °F 15.6 °F 24.1 °F 92% 30.19 in 1.5 mi NNE 11.5 mph - 0.01 in Snow Light Snow
3:18 AM 26.1 °F 16.2 °F 24.1 °F 92% 30.09 in 3.0 mi North 10.4 mph - 0.00 in Snow Light Snow
3:56 AM 26.1 °F 16.8 °F 23.0 °F 88% 30.20 in 7.0 mi North 9.2 mph - 0.00 in Snow Light Snow
4:56 AM 25.0 °F 18.1 °F 21.9 °F 88% 30.22 in 3.0 mi NNW 5.8 mph - 0.00 in Snow Light Snow
5:03 AM 24.1 °F 17.0 °F 21.9 °F 91% 30.11 in 2.5 mi NNW 5.8 mph - 0.00 in Snow Light Snow
5:10 AM 23.0 °F 14.7 °F 21.0 °F 92% 30.11 in 2.0 mi NNW 6.9 mph - 0.00 in Snow Light Snow
5:44 AM 21.9 °F 11.0 °F 19.0 °F 89% 30.11 in 6.0 mi NNW 10.4 mph - 0.00 in   Overcast
5:56 AM 21.9 °F 11.7 °F 21.0 °F 96% 30.25 in 9.0 mi NNW 9.2 mph - 0.00 in   Overcast
6:56 AM 24.1 °F 15.2 °F 21.0 °F 88% 30.25 in 6.0 mi NW 8.1 mph - 0.00 in Snow Light Snow
7:56 AM 24.1 °F 15.2 °F 21.9 °F 91% 30.27 in 2.0 mi NNW 8.1 mph - 0.00 in Snow Light Snow
8:04 AM 24.1 °F 15.2 °F 21.9 °F 91% 30.16 in 1.8 mi NNW 8.1 mph - 0.00 in Snow Light Snow
8:56 AM 24.1 °F 17.0 °F 21.9 °F 91% 30.29 in 4.0 mi WNW 5.8 mph - 0.00 in Snow Light Snow
9:56 AM 25.0 °F 20.7 °F 21.9 °F 88% 30.28 in 8.0 mi NW 3.5 mph - 0.00 in   Overcast
10:56 AM 26.1 °F 19.4 °F 23.0 °F 88% 30.30 in 8.0 mi West 5.8 mph - N/A   Overcast
11:16 AM 26.1 °F 20.5 °F 23.0 °F 88% 30.17 in 9.0 mi WSW 4.6 mph - N/A   Overcast
11:34 AM 26.1 °F 20.5 °F 23.0 °F 88% 30.16 in 10.0 mi West 4.6 mph - N/A   Overcast
11:56 AM 26.1 °F 20.5 °F 24.1 °F 92% 30.27 in 3.0 mi SW 4.6 mph - 0.00 in Snow Light Snow
12:22 PM 26.1 °F 19.4 °F 23.0 °F 88% 30.15 in 3.0 mi West 5.8 mph - 0.00 in   Mostly Cloudy
12:37 PM 26.1 °F 18.4 °F 21.9 °F 84% 30.14 in 10.0 mi West 6.9 mph - 0.00 in   Scattered Clouds
12:45 PM 26.1 °F 18.4 °F 21.9 °F 84% 30.13 in 10.0 mi West 6.9 mph - 0.00 in   Partly Cloudy
12:56 PM 25.0 °F 17.1 °F 21.0 °F 85% 30.25 in 10.0 mi WNW 6.9 mph - 0.00 in   Clear
1:56 PM 25.0 °F 18.1 °F 21.0 °F 85% 30.25 in 10.0 mi West 5.8 mph - N/A   Clear
2:56 PM 23.0 °F 14.7 °F 19.0 °F 85% 30.25 in 10.0 mi West 6.9 mph - N/A   Clear
3:56 PM 21.0 °F - 19.0 °F 92% 30.26 in 10.0 mi Calm Calm - N/A   Clear
4:56 PM 21.0 °F 14.6 °F 18.0 °F 88% 30.27 in 8.0 mi SW 4.6 mph - N/A   Clear
5:48 PM 18.0 °F 9.8 °F 16.0 °F 92% 30.13 in 1.8 mi SW 5.8 mph - N/A   Clear
5:56 PM 19.0 °F 12.3 °F 17.1 °F 92% 30.28 in 1.0 mi WSW 4.6 mph - N/A   Clear
6:56 PM 17.1 °F 10.0 °F 12.9 °F 84% 30.27 in 0.2 mi SW 4.6 mph - N/A Fog Light Freezing Fog
7:56 PM 10.9 °F - 6.1 °F 81% 30.28 in 0.2 mi Calm Calm - N/A   Haze
8:45 PM 9.0 °F -0.9 °F 3.9 °F 80% 30.11 in 0.5 mi NNE 5.8 mph - N/A   Haze
8:56 PM 7.0 °F -1.7 °F 3.0 °F 84% 30.28 in 0.5 mi NNE 4.6 mph - N/A Fog Light Freezing Fog
9:04 PM 6.1 °F -2.8 °F 1.0 °F 80% 30.10 in 0.2 mi NNE 4.6 mph - N/A   Haze
9:14 PM 6.1 °F -2.8 °F 1.0 °F 80% 30.11 in 0.5 mi NNE 4.6 mph - N/A   Haze
9:35 PM 7.0 °F -4.5 °F 1.9 °F 80% 30.11 in 0.2 mi North 6.9 mph - N/A   Haze
9:56 PM 7.0 °F -1.7 °F 1.9 °F 80% 30.27 in 0.2 mi North 4.6 mph - N/A   Haze
10:16 PM 7.0 °F 0.1 °F 1.9 °F 80% 30.10 in 0.5 mi North 3.5 mph - N/A   Haze
11:14 PM 8.1 °F - 1.9 °F 76% 30.08 in 0.2 mi Calm Calm - N/A   Haze
11:49 PM 10.0 °F - 5.0 °F 80% 30.07 in 0.8 mi Calm Calm - N/A   Haze
11:56 PM 10.0 °F - 5.0 °F 80% 30.23 in 0.8 mi Calm Calm - N/A   Haze